C/2019 F1 ( ATLAS-Africano )

Japanese version
Home page
Updated on May 15, 2024

---------------------------------------------------------------------

* Profile

Discovery Date March 28 and 29, 2019
Magnitude 18.3 mag, 18.4 mag
Discoverer Asteroid Terrestrial-Impact Last Alert System (ATLAS) search program, B. M. Africano (Mount Lemmon Survey)

* Pictures

* Orbital Elements

Epoch 2024 Mar. 31.0 TT = JDT 2460400.5
T 2021 June 22.14686 TT                                 Rudenko
q   3.6078713            (2000.0)            P               Q
z  -0.0004051      Peri.  251.34104     +0.09613948     +0.85660632
 +/-0.0000004      Node    38.66387     -0.27428436     +0.51237490
e   1.0014616      Incl.   54.23486     -0.95683086     -0.06080776
>From 1976 observations 2019 Feb. 8-2024 Jan. 31, mean residual 0".7.

* Finding Charts

* Magnitudes Graph

        m1 = 8.0 + 5 log d + 7.0 log r(t + 150)

---------------------------------------------------------------------

The orbital elements are published on M.P.E.C. 2024-G193.
The charts are made with StellaNavigator Ver.10 (AstroArts).
The magnitudes graphs are made with Comet for Windows.

---------------------------------------------------------------------

Copyright(C) Seiichi Yoshida (comet@aerith.net). All rights reserved.